Погода в Кяхте

Погода в Кяхте : погода сейчас, прогноз погоды и архив. Всё, что Вы хотите узнать о погоде в Кяхте!

Поиск расширенной информации на нашем сайте:

Другие новости

Новости СМИ2

Главная страница сайта

Новости сайта

03.07.2017

Напоминаем, что на нашем специализированном сайте Метеоцентр.Азия вы можете получить высокодетализированные автоматические прогнозы погоды по пунктам России, СНГ и мира в авиационном формате (включающие направление и скорость ветра, видимость, явления погоды, количество и форму облачности, нижнюю и верхнюю границу облачности).

Рекомендуем: Популярные фирмы - стеклобанка. В паллетах

Погода в Кяхте - сегодня

Время (UTC), дата Ветер
(°,м/с) 
Видим.   Явления Облачность Т
(°С)
Тd
(°С)
f(%) Тe
(°С)
Pmin
(гПа)
dP
(гПа)
Po
(мм)
O2
(г/м3)
Тmin Tmax R s Состояние
почвы
06 21.11.17 260 (З) 20000 м    8/1 1000 м средняя, верхняя 
[Sc|Ac As|Cs]
-4.2 -16.1 39 -6  1026.8  -0.8  697  286           
09 21.11.17 270 (З) 20000 м    10/8 2000 м средняя, верхняя 
[Ac As|Cs]
-5.8 -17.6 39 -5  1027.7  0.2  697  288           
12 21.11.17 300 (СЗ) н/о    9/9 2000 м средняя 
[Ac As]
-9 -13.3 71 -11  1030.3  1.3  698  292    -3.8       
15 21.11.17 300 (СЗ) н/о    10/10 2000 м 
[Ac As]
-9.5 -15.4 62 -9  1030  -0.4  697  292           
18 21.11.17 330 (СЗ) н/о    4/3 2000 м средняя, верхняя 
[Ac As|Ci fib]
-11.4 -17.6 60 -11  1031.4  0.5  698  295           
21 21.11.17 350 (С) н/о    6/4 2000 м средняя, верхняя 
[Ac As|Ci fib]
-14.7 -17.7 78 -15  1032.7  698  298           
00 22.11.17 360 (С) 20000 м    6/3 2000 м средняя, верхняя 
[Ac As|Ci fib]
-15.3 -18.3 78 -15  1032.2  -0.7  697  299  -15.3       
03 22.11.17 тихо ()   20000 м    8/3 2000 м средняя, верхняя 
[Ac As|Cs]
-12 -16.7 68 -12  1029.9  -0.9  697  295  -16.1         
06 22.11.17 190 (Ю) 20000 м    8/1 1000 м средняя, верхняя 
[Sc|Ac As|Cs]
-6.5 -16.8 44 -9  1025.9  -1.6  695  288           
09 22.11.17 тихо ()   20000 м    9/4 2000 м средняя, верхняя 
[Ac As|Cs]
-8.8 -17.1 51 -9  1025  -1.7  694  290           
12 22.11.17 340 (С) н/о    9/8 2000 м средняя, верхняя 
[Ac As|Cs]
-10 -17.1 56 -10  1025.1  -0.3  694  291    -5.6       
15 22.11.17 010 (С) н/о    10/9 2000 м средняя, верхняя 
[Ac As|Ci sp]
-12.5 -17 69 -12  1027  0.8  695  295           
18 22.11.17 тихо ()   н/о    8/5 2000 м средняя, верхняя 
[Ac As|Ci fib]
-13.5 -18.3 67 -14  1028.5  695  296           
21 22.11.17 170 (Ю) н/о    9/8 2000 м средняя, верхняя 
[Ac As|Ci fib]
-11.9 -16.4 69 -12  1028.3  0.4  696  294           
00 23.11.17 010 (С) 20000 м    8/6 2000 м средняя, верхняя 
[Ac As|Cs]
-11.8 -15.8 72 -12  1028.6  0.3  696  294  -14.5      равномерный
сухой снег
100% 
03 23.11.17 280 (З) 20000 м    3/1 1000 м верхняя 
[Sc|Cs]
-5.5 -14 51 -8  1026.8  0.7  696  287           
06 23.11.17 300 (СЗ) 20000 м    9/3 1000 м средняя, верхняя 
[Sc|Ac trans|Ci fib]
-4.6 -15.6 42 -4  1025.5  -0.9  696  286           
09 23.11.17 310 (СЗ) 2{10}  20000 м    9/4 1000 м средняя, верхняя 
[Sc|Ac As|Cs]
-5.7 -13.5 54 -7  1025.4  -0.5  695  287           
12 23.11.17 тихо ()   н/о    8/3 1000 м средняя, верхняя 
[Sc|Ac As|Cs]
-12.4 -15.6 77 -12  1027.7  -0.3  695  295    -3.6       
15 23.11.17 тихо ()   н/о    8/6 2000 м средняя, верхняя 
[Ac As|Cs]
-12.2 -15.1 79 -12  1026.6  -0.9  694  294           
18 23.11.17 030 (СВ) н/о    3/1 2000 м средняя, верхняя 
[Ac As|Cs]
-14.4 -16.8 82 -14  1026.4  -1  694  296           
21 23.11.17 350 (С) н/о    ясно 
-16.1 -18.3 83 -16  1026.4  -0.6  693  298           
00 24.11.17 360 (С) 20000 м    8/1 2000 м средняя, верхняя 
[Ac trans|Cs]
-16.5 -18.7 83 -17  1026.6  693  299  -16.9      равномерный
сухой снег
100% 
03 24.11.17 140 (ЮВ) 20000 м    4/1 2000 м средняя, верхняя 
[Ac trans|Ci fib]
-9.6 -15 65 -9  1024  0.2  693  291  -17.1         
06 24.11.17 130 (ЮВ) 20000 м    6/3 2000 м средняя, верхняя 
[Ac lent|Ci fib]
-8.9 -15.5 59 -11  1022.8  -0.9  693  290           
Время (UTC), дата Ветер
(°,м/с) 
Видим.   Явления Облачность Т
(°С)
Тd
(°С)
f(%) Тe
(°С)
Pmin
(гПа)
dP
(гПа)
Po
(мм)
O2
(г/м3)
Тmin Tmax R s Состояние
почвы

Для получения пояснительной информации подведите курсор к названию столбца.

ПОГОДА в Кяхте - архив

Всё, что Вы хотите узнать о погоде в Кяхте - удобно и подробно!

Выберите нужную дату (начиная с 1 января 2015* года) и нажмите кнопку "Найти".
Будут отображены архивные сводки погоды по пункту Кяхта, начиная с указанной даты.


Отображать данные в формате CSV (для использования в таблицах Excel)


Внимание! Наш архив погоды предназначен исключительно для личного некоммерческого использования в познавательных целях. Если Вам необходимы официальные справки о состоянии погоды (для производственных, юридических, коммерческих и т.п. целей), обращайтесь в органы Росгидромета.

*Примечание: данная дата относится к архиву по метеостанциям СССР (Россия, СНГ, Балтия).
Архив по метеостанциям Зарубежной Европы и Азии (кроме Китая) хранится 10 дней, по другим регионам земного шара (Китай, Африка, Америка, Австралия, Океания) - 1 день.

Кяхта - район местоположения метеостанции


Название, широта, долгота, высота метеостанции:
Кяхта 50.4°ш. 106.4°д. 797 м над ур. моря [Российская Федерация]

Дополнительная информация

В oтличие oт бoльшинства пoгoдных сайтoв мы публикуем пoдрoбную метеoинфoрмацию в детальнoм прoфессиoнальнoм фoрмате.

Характеристики температуры и влажнoсти вoздуха измеряются на высoте 2 м в тени вдали oт зданий и деревьев.
Скoрoсть ветра измеряется на высoте 10 м (на урoвне рoста челoвека скoрoсть ветра ниже в 1.5-2 раза). Если метеoстанция нахoдится в гoрoде или в лесу, тo скoрoсть ветра занижена на 2-4 м/с пo сравнению с oткрытым местoм. Скoрoсть ветра над акватoриями крупных рек и oзёр, а также на вершинах хoлмoв на 2-5 м/с выше, чем в oбычных услoвиях.
Атмoсфернoе давление в разных тoчках местнoсти мoжет значительнo oтличаться oт давления на метеoстанции, в зависимoсти oт услoвий рельефа (при пoдъёме на 10 м давление пoнижается примернo на 1 мм рт.ст.).